Great Bend, KS

10:51 AM CST on November 20, 2019 (GMT -0600)
Great Bend Municipal

Weather History for KGBD - October, 2019

Change the Weather History Date:

Sunday, October 20, 2019

  Actual Average Record
Temperature  
Mean Temperature 56 °F -  
Max Temperature 64 °F 70 °F 91 °F (1975)
Min Temperature 48 °F 43 °F 25 °F (1976)
Degree Days  
Heating Degree Days 9    
Growing Degree Days 6 (Base 50)    
Moisture  
Dew Point 38 °F    
Average Humidity 54    
Maximum Humidity 80    
Minimum Humidity 22    
Precipitation  
Precipitation 0.00 in - - ()
Sea Level Pressure  
Sea Level Pressure 29.66 in    
Wind  
Wind Speed 16 mph (SSW)    
Max Wind Speed 39 mph    
Max Gust Speed 47 mph    
Visibility 10 miles    
Events      
Averages and records for this station are not official NWS values.
T = Trace of Precipitation, MM = Missing Value Source: NWS Daily Summary

Daily Weather History Graph

Daily Weather History Graph

Search for Another Location

Airport or City:

Astronomy

Oct. 20, 2019 Rise Set
Actual Time 7:49 AM CDT 6:50 PM CDT
Civil Twilight 7:22 AM CDT 7:17 PM CDT
Nautical Twilight 6:51 AM CDT 7:48 PM CDT
Astronomical Twilight 6:20 AM CDT 8:18 PM CDT
Moon No Moon Rise 2:15 PM CDT
Length of Visible Light 11h 55m
Length of Day
11h 01m
Waning Gibbous, 59% of the Moon is Illuminated
Oct 20
Waning Gibbous
Oct 21
Last Quarter
Oct 27
New
Nov 4
First Quarter
Nov 12
Full

Hourly Weather History & Observations

Time (CDT) Temp. Dew Point Humidity Pressure Visibility Wind Dir Wind Speed Gust Speed Precip Events Conditions
12:56 AM 50.0 °F 35.1 °F 57% 29.77 in 10.0 mi SSE 10.4 mph - N/A   Clear
1:56 AM 48.9 °F 35.1 °F 59% 29.75 in 10.0 mi SSE 10.4 mph - N/A   Clear
3:56 AM 48.0 °F 36.0 °F 63% 29.73 in 10.0 mi SSE 10.4 mph - N/A   Clear
4:56 AM 48.0 °F 37.9 °F 68% 29.70 in 10.0 mi SSE 15.0 mph - N/A   Clear
5:56 AM 53.1 °F 42.1 °F 66% 29.68 in 10.0 mi SSE 18.4 mph 25.3 mph N/A   Clear
6:56 AM 53.1 °F 42.1 °F 66% 29.67 in 10.0 mi SSE 19.6 mph - N/A   Clear
7:56 AM 54.0 °F 44.1 °F 69% 29.66 in 10.0 mi SSE 19.6 mph - N/A   Clear
8:56 AM 54.0 °F 48.0 °F 80% 29.67 in 10.0 mi SSE 20.7 mph 25.3 mph N/A   Clear
9:56 AM 57.0 °F 48.9 °F 74% 29.67 in 10.0 mi South 20.7 mph 27.6 mph N/A   Clear
10:56 AM 60.1 °F 48.9 °F 67% 29.63 in 10.0 mi SSE 29.9 mph 38.0 mph N/A   Clear
11:56 AM 59.0 °F 50.0 °F 72% 29.65 in 10.0 mi South 15.0 mph - N/A   Partly Cloudy
12:56 PM 60.1 °F 50.0 °F 69% 29.63 in 10.0 mi South 18.4 mph 28.8 mph N/A   Partly Cloudy
1:56 PM 61.0 °F 48.9 °F 64% 29.60 in 10.0 mi South 17.3 mph 25.3 mph N/A   Scattered Clouds
2:48 PM 62.6 °F 44.6 °F 52% 29.59 in 10.0 mi WSW 15.0 mph - N/A   Overcast
2:56 PM 63.0 °F 45.0 °F 52% 29.58 in 10.0 mi WSW 13.8 mph - N/A   Mostly Cloudy
4:56 PM 64.0 °F 30.9 °F 29% 29.61 in 10.0 mi NW 18.4 mph 24.2 mph N/A   Clear
5:56 PM 63.0 °F 23.0 °F 22% 29.63 in 10.0 mi NNW 21.9 mph 32.2 mph N/A   Partly Cloudy
6:56 PM 60.1 °F 21.9 °F 23% 29.65 in 10.0 mi NW 12.7 mph - N/A   Scattered Clouds
7:56 PM 55.0 °F 27.0 °F 34% 29.66 in 10.0 mi West 6.9 mph - N/A   Partly Cloudy
8:56 PM 53.1 °F 28.9 °F 40% 29.67 in 10.0 mi SW 8.1 mph - N/A   Mostly Cloudy
9:56 PM 55.9 °F 25.0 °F 30% 29.68 in 10.0 mi WNW 20.7 mph 29.9 mph N/A   Partly Cloudy
10:56 PM 55.9 °F 28.0 °F 34% 29.66 in 5.0 mi WNW 39.1 mph 47.2 mph N/A   Haze
11:56 PM 52.0 °F 30.0 °F 43% 29.66 in 10.0 mi WNW 26.5 mph 34.5 mph N/A   Clear